Regional Weather Roundup
Issued by NWS

Home | Current Version | Previous Version | Graphics & Text | Print | Product List | Glossary Off
Versions: 1 2 3 4 5 6 7 8 9 10 11 12 13 14 15 16 17 18 19 20 21 22 23 24 25 26 27 28 29 30 31 32 33 34 35 36 37 38 39 40 41 42 43 44 45 46 47 48 49 50

000
ASUS43 KLSX 220607
RWRMO

WEATHER SUMMARY FOR MISSOURI
NATIONAL WEATHER SERVICE SPRINGFIELD MO
1200 AM CST MON DEC 22 2014

NOTE: "FAIR" INDICATES FEW OR NO CLOUDS BELOW 12,000 FEET WITH NO
       SIGNIFICANT WEATHER AND/OR OBSTRUCTIONS TO VISIBILITY.
       CURRENT SKY AND/OR WEATHER CONDITIONS ARE NOT AVAILABLE FOR
       CHILLICOTHE AND FARMINGTON.

MOZ001>031-035>038-043-044-053-054-220700-
...NORTHERN AND WESTERN MISSOURI...

CITY           SKY/WX    TMP DP  RH WIND       PRES   REMARKS
KANSAS CTY INT DRIZZLE   42  39  89 S14       29.73F
6HR MIN TEMP:  42; 6HR MAX TEMP:  44; 6HR PCP: TRACE;

KANSAS C DTWN  CLOUDY    44  37  76 S10       29.75F
6HR MIN TEMP:  44; 6HR MAX TEMP:  46;

LEE`S SUMMIT   CLOUDY    42  37  82 SE10      29.76F
6HR MIN TEMP:  42; 6HR MAX TEMP:  43; 6HR PCP: TRACE;

ST JOSEPH      CLOUDY    44  39  82 SE13      29.73F
6HR MIN TEMP:  43; 6HR MAX TEMP:  45; 6HR PCP: TRACE;

CHILLICOTHE      N/A     42  38  85 SE8       29.81F
6HR MIN TEMP:  42; 6HR MAX TEMP:  43; 6HR PCP:  0.02;

KIRKSVILLE     CLOUDY    39  37  92 SE10      29.84S
6HR MIN TEMP:  39; 6HR MAX TEMP:  42; 6HR PCP: TRACE;


$$
MOZ066>068-077>081-088>096-101>105-220700-
...SOUTHWEST MISSOURI...

CITY           SKY/WX    TMP DP  RH WIND       PRES   REMARKS
SPRINGFIELD    CLOUDY    42  36  79 SE15      29.80F
6HR MIN TEMP:  41; 6HR MAX TEMP:  43;

JOPLIN         CLOUDY    44  39  82 SE12      29.76F
6HR MIN TEMP:  44; 6HR MAX TEMP:  46;


$$
MOZ032>034-039>042-045>050-055>058-069>072-220700-
...CENTRAL MISSOURI...

CITY           SKY/WX    TMP DP  RH WIND       PRES   REMARKS
COLUMBIA       CLOUDY    41  34  76 SE12      29.85F
6HR MIN TEMP:  40; 6HR MAX TEMP:  42;

JEFFERSON CITY CLOUDY    43  34  70 SE8       29.87F
6HR MIN TEMP:  42; 6HR MAX TEMP:  43;

ROLLA          CLOUDY    39  32  76 SE9       29.84F
6HR MIN TEMP:  38; 6HR MAX TEMP:  39;

SEDALIA        CLOUDY    44  35  70 SE12      29.82F
6HR MIN TEMP:  43; 6HR MAX TEMP:  44;

WHITEMAN AFB   CLOUDY    43  36  76 S9        29.79F
WARRENSBURG    CLOUDY    41  36  81 SE12      29.79F
OSAGE BEACH    CLOUDY    43  34  70 S7        29.84S

$$
MOZ051-052-059>065-220700-
...EAST CENTRAL MISSOURI...

CITY           SKY/WX    TMP DP  RH WIND       PRES   REMARKS
ST LOUIS INTL  CLOUDY    43  31  62 SE10      29.93F
6HR MIN TEMP:  43; 6HR MAX TEMP:  44; 6HR PCP: TRACE;

SPIRIT OF STL  CLOUDY    42  33  70 SE5       29.91F
6HR MIN TEMP:  42; 6HR MAX TEMP:  43;

ST CHARLES     CLOUDY    40  34  79 E9        29.93F
6HR MIN TEMP:  40; 6HR MAX TEMP:  42;


$$
MOZ072>076-082>087-097>100-106>115-220700-
...SOUTH CENTRAL AND SOUTHEAST MISSOURI...

CITY           SKY/WX    TMP DP  RH WIND       PRES   REMARKS
CAPE GIRARDEAU CLOUDY    42  33  70 E7        29.94F
6HR MIN TEMP:  34; 6HR MAX TEMP:  43;

FARMINGTON     CLOUDY    41  32  70 E7        29.92F
6HR MIN TEMP:  39; 6HR MAX TEMP:  41;

POPLAR BLUFF   CLOUDY    42  33  70 E5        29.92F
6HR MIN TEMP:  40; 6HR MAX TEMP:  43;

WEST PLAINS    CLOUDY    40  33  76 E5        29.87F
6HR MIN TEMP:  38; 6HR MAX TEMP:  40;


$$


USA.gov is the U.S. government's official web portal to all federal, state and local government web resources and services.